Header for Extended Forecast Station List Page

Search by: ID | Name | Date | Parm | Value | Avg | % Avg
Sort by: ID | Name | Date | Parm | Value | Avg | % Avg

Enter search or view all records.

Click on id for station plot
#IDNameDateParmValueAvg% Avg
0LYDM8KOOTENAI-LIBBY DAM01-22-2019INFLOW (KAF)1254172773
1LEOI1KOOTENAI-AT LEONIA01-22-2019DISCHARGE (KAF)1699222876
2BFEI1KOOTENAI-AT BONNERS FERRY01-22-2019STAGE (FT)MMM
3FCFM8NF FLATHEAD-NEAR COLUMBIA FALLS01-22-2019DISCHARGE (KAF)40257969
4WGCM8MF FLATHEAD-NEAR WEST GLACIER01-22-2019DISCHARGE (KAF)38255069
5HHWM8SF FLATHEAD-HUNGRY HORSE DAM01-22-2019INFLOW (KAF)60580675
6CFMM8FLATHEAD-AT COLUMBIA FALLS01-22-2019DISCHARGE (KAF)1374199869
7DLGM8CLARK FORK-AT DEER LODGE01-22-2019DISCHARGE (KAF)636892
8DRMM8CLARK FORK-NR DRUMMOND01-22-2019DISCHARGE (KAF)170MM
9RCCM8ROCK CREEK-NEAR CLINTON01-22-2019DISCHARGE (KAF)709573
10BONM8BLACKFOOT-NEAR BONNER01-22-2019DISCHARGE (KAF)30535187
11ABOM8CLARK FORK-ABOVE MISSOULA01-22-2019DISCHARGE (KAF)56567983
12BITM8BITTERROOT-NEAR MISSOULA01-22-2019DISCHARGE (KAF)38647881
13BELM8CLARK FORK-BELOW MISSOULA01-22-2019DISCHARGE (KAF)951116482
14STRM8ST. REGIS-NEAR ST. REGIS01-22-2019DISCHARGE (KAF)10916765
15SRGM8CLARK FORK-AT ST REGIS01-22-2019DISCHARGE (KAF)1346163682
16KERM8FLATHEAD-KERR DAM01-22-2019INFLOW (KAF)1521257359
17NOXM8CLARK FORK-NOXON RAPIDS DAM01-22-2019INFLOW (KAF)3281519063
18CABI1CLARK FORK-CABINET GORGE DAM01-22-2019INFLOW (KAF)3660544867
19PRTI1PRIEST-NEAR PRIEST RIVER01-22-2019DISCHARGE (KAF)40446387
20ALFW1PEND OREILLE-ALBENI FALLS DAM01-22-2019INFLOW (KAF)4641664770
21HOPI1PEND OREILLE-PEND OREILLE LAKE NR HOPE01-22-2019LAKE ELEVATION (FT)MMM
22COEI1COEUR D ALENE-COEUR D ALENE LAKE01-22-2019INFLOW (KAF)2190240191
23SPOW1SPOKANE-AT SPOKANE01-22-2019DISCHARGE (KAF)2040MM
24LLKW1SPOKANE-AT LONGLAKE01-22-2019INFLOW (KAF)2409284185
25SATI1ST MARIES-NEAR SANTA01-22-2019DISCHARGE (KAF)140137102
26SJMI1ST JOE-AT ST MARIES01-22-2019STAGE (FT)MMM
27CIBW1COLUMBIA-AT INTL BOUNDARY01-22-2019DISCHARGE (KAF)15905MM
28LAUW1KETTLE-AT LAURIER01-22-2019DISCHARGE (KAF)61281275
29GCDW1COLUMBIA-GRAND COULEE DAM01-22-2019INFLOW (KAF)189772146188
30CHJW1COLUMBIA-CHIEF JOSEPH DAM01-22-2019INFLOW (KAF)192752481078
31TONW1OKANOGAN-NEAR TONASKET01-22-2019DISCHARGE (KAF)46159977
32PATW1METHOW-NEAR PATEROS01-22-2019DISCHARGE (KAF)21031068
33WELW1COLUMBIA-WELLS DAM01-22-2019INFLOW (KAF)199312569778
34CHDW1CHELAN-LAKE CHELAN DAM01-22-2019INFLOW (KAF)29838777
35RRHW1COLUMBIA-ROCKY REACH DAM01-22-2019INFLOW (KAF)202682610478
36ARDW1ENTIAT-NEAR ARDENVOIR01-22-2019DISCHARGE (KAF)586688
37PESW1WENATCHEE-AT PESHASTIN01-22-2019DISCHARGE (KAF)60265991
38WANW1COLUMBIA-WANAPUM DAM01-22-2019INFLOW (KAF)208642455085
39PRWW1COLUMBIA-PRIEST RAPIDS DAM01-22-2019INFLOW (KAF)208622483084
40KEDW1YAKIMA-KEECHELUS LAKE01-22-2019INFLOW (KAF)9481117
41KADW1KACHESS-KACHESS DAM01-22-2019INFLOW (KAF)8577110
42EASW1YAKIMA-AT EASTON01-22-2019DISCHARGE (KAF)8410085
43CLUW1CLE ELUM-CLE ELUM LAKE01-22-2019INFLOW (KAF)226210108
44TNAW1TEANAWAY-BELOW FORKS01-22-2019DISCHARGE (KAF)126116108
45UMTW1YAKIMA-AT UMTANUM01-22-2019DISCHARGE (KAF)49750998
46BUDW1BUMPING-BUMPING LAKE DAM01-22-2019INFLOW (KAF)566193
47CLFW1NACHES-NEAR CLIFFDEL01-22-2019DISCHARGE (KAF)17722977
48RILW1TIETON-RIMROCK LAKE NEAR RIMROCK01-22-2019INFLOW (KAF)8611277
49NACW1NACHES-NEAR NACHES01-22-2019DISCHARGE (KAF)24627390
50PARW1YAKIMA-NEAR PARKER01-22-2019DISCHARGE (KAF)48061878
51KIOW1YAKIMA-AT KIONA01-22-2019DISCHARGE (KAF)71396474
52IPDI1HENRYS FORK-ISLAND PARK DAM01-22-2019INFLOW (KAF)13914696
53CHEI1FALL RIVER-NEAR CHESTER01-22-2019DISCHARGE (KAF)186182102
54ANTI1HENRYS FORK-AT ST. ANTHONY01-22-2019DISCHARGE (KAF)47147699
55TEAI1TETON-NEAR ST. ANTHONY01-22-2019DISCHARGE (KAF)13315387
56REXI1HENRYS FORK-AT REXBURG01-22-2019DISCHARGE (KAF)50254991
57JLKW4SNAKE-JACKSON LAKE AT DAM01-22-2019INFLOW (KAF)19023182
58JKSW4SNAKE-NEAR JACKSON01-22-2019DISCHARGE (KAF)45849792
59ALPW4SNAKE-NEAR ALPINE01-22-2019DISCHARGE (KAF)61367691
60PLDI1SF SNAKE-PALISADES DAM01-22-2019INFLOW (KAF)958112186
61HEII1SNAKE-NEAR HEISE01-22-2019DISCHARGE (KAF)11951174102
62RIDI1WILLOW CREEK-RIRIE DAM01-22-2019INFLOW (KAF)313589
63SIFI1SNAKE-AB EAGLE ROCK NR IDAHO FALLS01-22-2019DISCHARGE (KAF)1299131699
64SHYI1SNAKE-NEAR SHELLEY01-22-2019DISCHARGE (KAF)1206134790
65SNAI1SNAKE-AT BLACKFOOT01-22-2019DISCHARGE (KAF)1029118487
66BFTI1SNAKE-NEAR BLACKFOOT01-22-2019DISCHARGE (KAF)1013121384
67PIHI1PORTNEUF-AT POCATELLO01-22-2019DISCHARGE (KAF)729873
68AFRI1SNAKE-AMERICAN FALLS RESERVOIR01-22-2019INFLOW (KAF)1588191583
69MILI1SNAKE-AT MILNER01-22-2019DISCHARGE (KAF)7976010
70HOTI1BRUNEAU-NEAR HOT SPRINGS01-22-2019DISCHARGE (KAF)7111263
71SWAI1SNAKE-BELOW SWAN FALLS01-22-2019DISCHARGE (KAF)1756272564
72HWRI1BIG LOST-AT HOWELL RANCH NEAR CHILLY01-22-2019DISCHARGE (KAF)284168
73MACI1BIG LOST-MACKAY RESERVOIR NEAR MACKAY01-22-2019INFLOW (KAF)3632113
74HALI1BIG WOOD-AT HAILEY01-22-2019DISCHARGE (KAF)549060
75MAGI1BIG WOOD-MAGIC DAM01-22-2019INFLOW (KAF)5614638
76LWRI1LITTLE WOOD-LITTLE WOOD DAM01-22-2019INFLOW (KAF)294663
77OWYO3OWYHEE-OWYHEE DAM01-22-2019INFLOW (KAF)19933859
78ARAI1SF BOISE-ANDERSON RANCH DAM01-22-2019INFLOW (KAF)18928566
79LUCI1BOISE-LUCKY PEAK DAM01-22-2019INFLOW (KAF)647MM
80BIGI1BOISE-AT GLENWOOD BRIDGE01-22-2019DISCHARGE (KAF)308234132
81PARI1BOISE-NEAR PARMA01-22-2019DISCHARGE (KAF)376348108
82WRMO3MALHEUR-WARM SPRINGS DAM01-22-2019INFLOW (KAF)437657
83BERO3MALHEUR-AGENCY VALLEY DAM01-22-2019INFLOW (KAF)254952
84BULO3BULLY CREEK-BULLY CREEK DAM01-22-2019INFLOW (KAF)4946
85VALO3MALHEUR-NEAR VALE01-22-2019DISCHARGE (KAF)606296
86CSDI1NF PAYETTE-CASCADE DAM01-22-2019INFLOW (KAF)22025985
87DEDI1DEADWOOD-NEAR LOWMAN01-22-2019INFLOW (KAF)425478
88EMMI1PAYETTE-NEAR EMMETT01-22-2019DISCHARGE (KAF)52779766
89WSRI1WEISER-NEAR WEISER01-22-2019DISCHARGE (KAF)30537382
90WEII1SNAKE-AT WEISER01-22-2019DISCHARGE (KAF)3229494965
91BRNI1SNAKE-BROWNLEE DAM01-22-2019INFLOW (KAF)3576531167
92WHBI1SALMON-AT WHITEBIRD01-22-2019DISCHARGE (KAF)1665223774
93TRYO3GRANDE RONDE-TROY01-22-2019DISCHARGE (KAF)74597676
94ANAW1SNAKE-NEAR ANATONE01-22-2019DISCHARGE (KAF)5898950362
95ORFI1CLEARWATER-AT OROFINO01-22-2019DISCHARGE (KAF)2459259695
96DWRI1NF CLEARWATER-DWORSHAK DAM01-22-2019INFLOW (KAF)18491845100
97SPDI1CLEARWATER-AT SPALDING01-22-2019DISCHARGE (KAF)3795447085
98LGDW1SNAKE-LOWER GRANITE DAM01-22-2019INFLOW (KAF)96931398469
99LGSW1SNAKE-LITTLE GOOSE DAM01-22-2019INFLOW (KAF)96931404069
100LMNW1SNAKE-LOWER MONUMENTAL DAM01-22-2019INFLOW (KAF)100201430670
101IHDW1SNAKE-ICE HARBOR DAM01-22-2019INFLOW (KAF)100201413571
102TCHW1WALLA WALLA-NEAR TOUCHET01-22-2019DISCHARGE (KAF)21121996
103MCDW1COLUMBIA-MCNARY DAM01-22-2019INFLOW (KAF)316964128377
104GIBO3UMATILLA-NEAR GIBBON01-22-2019DISCHARGE (KAF)9482115
105PDTO3UMATILLA-AT PENDLETON01-22-2019DISCHARGE (KAF)199196102
106MYKO3MCKAY CREEK-NEAR PILOT ROCK01-22-2019DISCHARGE (KAF)374190
107UMAO3UMATILLA-NEAR UMATILLA01-22-2019DISCHARGE (KAF)177177100
108MONO3NF JOHN DAY-AT MONUMENT01-22-2019DISCHARGE (KAF)32954061
109SERO3JOHN DAY-AT SERVICE CK01-22-2019DISCHARGE (KAF)49079761
110JDAO3COLUMBIA-JOHN DAY DAM01-22-2019INFLOW (KAF)335994366577
111MODO3DESCHUTES-AT MOODY NR BIGGS01-22-2019DISCHARGE (KAF)1404159688
112TDAO3COLUMBIA-THE DALLES DAM01-22-2019INFLOW (KAF)340304534475
113PITW1KLICKITAT-NEAR PITT01-22-2019DISCHARGE (KAF)34650169
114HODO3HOOD-NEAR TUCKER BRIDGE01-22-2019DISCHARGE (KAF)26228791
115UNDW1WHITE SALMON-NEAR UNDERWOOD01-22-2019DISCHARGE (KAF)29335283
116BONO3COLUMBIA-BONNEVILLE DAM01-22-2019INFLOW (KAF)349124811573